Juneau, WI

5:47 AM CST on December 07, 2019 (GMT -0600)
Dodge County

Weather History for KUNU - October, 2019

Change the Weather History Date:

Tuesday, October 1, 2019

  Actual Average Record
Temperature  
Mean Temperature 65 °F -  
Max Temperature 73 °F 62 °F 87 °F (1971)
Min Temperature 57 °F 43 °F 29 °F (1993)
Growing Degree Days 15 (Base 50)    
Moisture  
Dew Point 68 °F    
Average Humidity 96    
Maximum Humidity 100    
Minimum Humidity 85    
Precipitation  
Precipitation 3.53 in - - ()
Sea Level Pressure  
Sea Level Pressure 29.91 in    
Wind  
Wind Speed 4 mph ()    
Max Wind Speed 15 mph    
Max Gust Speed 23 mph    
Visibility 8.1 miles    
Events Rain    
Averages and records for this station are not official NWS values.
T = Trace of Precipitation, MM = Missing Value Source: Averaged Metar Reports

Daily Weather History Graph

Daily Weather History Graph

Search for Another Location

Airport or City:

Astronomy

Oct. 01, 2019 Rise Set
Actual Time 6:52 AM CDT 6:36 PM CDT
Civil Twilight 6:23 AM CDT 7:04 PM CDT
Nautical Twilight 5:50 AM CDT 7:37 PM CDT
Astronomical Twilight 5:16 AM CDT 8:11 PM CDT
Moon 10:12 AM CDT (10/1) 8:43 PM CDT (10/1)
Length of Visible Light 12h 41m
Length of Day
11h 44m
Waxing Crescent, 12% of the Moon is Illuminated
Oct 1
Waxing Crescent
Oct 5
First Quarter
Oct 13
Full
Oct 21
Last Quarter
Oct 27
New

Hourly Weather History & Observations

Time (CDT) Temp. Dew Point Humidity Pressure Visibility Wind Dir Wind Speed Gust Speed Precip Events Conditions
12:15 AM 73.8 °F 68.9 °F 85% 29.90 in 10.0 mi SSW 6.9 mph - N/A   Clear
12:35 AM 73.4 °F 68.5 °F 85% 29.90 in 10.0 mi SSW 5.8 mph - N/A   Clear
12:55 AM 72.5 °F 68.5 °F 87% 29.89 in 10.0 mi SSW 8.1 mph - N/A   Clear
1:15 AM 72.5 °F 68.5 °F 87% 29.89 in 10.0 mi SSW 6.9 mph - N/A   Clear
1:35 AM 71.8 °F 68.5 °F 89% 29.90 in 10.0 mi SSW 6.9 mph - N/A   Clear
1:55 AM 71.8 °F 68.5 °F 89% 29.89 in 10.0 mi SSW 8.1 mph - N/A   Clear
2:15 AM 71.6 °F 68.4 °F 89% 29.89 in 10.0 mi SSW 9.2 mph - N/A   Clear
2:35 AM 71.4 °F 68.5 °F 91% 29.90 in 10.0 mi SSW 8.1 mph - N/A   Clear
2:55 AM 71.1 °F 68.4 °F 91% 29.89 in 10.0 mi SSW 6.9 mph - N/A   Clear
3:15 AM 70.7 °F 68.4 °F 92% 29.89 in 10.0 mi SSW 6.9 mph - N/A   Clear
3:35 AM 70.3 °F 68.4 °F 93% 29.89 in 10.0 mi SSW 5.8 mph - N/A   Clear
3:55 AM 70.2 °F 68.2 °F 93% 29.89 in 10.0 mi SSW 3.5 mph - N/A   Clear
4:15 AM 70.0 °F 68.0 °F 93% 29.87 in 10.0 mi SSW 4.6 mph - N/A   Clear
4:35 AM 70.0 °F 68.0 °F 93% 29.89 in 10.0 mi SW 3.5 mph - N/A   Clear
4:55 AM 70.2 °F 68.2 °F 93% 29.89 in 10.0 mi SW 3.5 mph - N/A   Clear
5:15 AM 70.3 °F 68.4 °F 93% 29.90 in 10.0 mi Calm Calm - N/A Rain Rain
5:35 AM 70.0 °F 68.4 °F 95% 29.91 in 10.0 mi SW 3.5 mph - 0.01 in Rain Light Rain
5:55 AM 69.8 °F 68.4 °F 95% 29.89 in 10.0 mi Calm Calm - 0.01 in   Scattered Clouds
6:15 AM 69.3 °F 68.4 °F 97% 29.92 in 7.0 mi Calm Calm - 0.02 in Rain Rain
6:55 AM 68.9 °F 68.2 °F 98% 29.92 in 10.0 mi Calm Calm - 0.03 in Rain Light Rain
7:15 AM 69.1 °F 68.4 °F 98% 29.91 in 10.0 mi Calm Calm - N/A   Light Drizzle
7:35 AM 68.9 °F 68.4 °F 98% 29.92 in 7.0 mi Calm Calm - 0.01 in Rain Rain
7:55 AM 68.9 °F 68.4 °F 98% 29.93 in 7.0 mi Calm Calm - 0.02 in Rain Light Rain
8:15 AM 69.1 °F 68.5 °F 98% 29.92 in 10.0 mi Calm Calm - 0.01 in Rain Rain
8:35 AM 69.1 °F 68.5 °F 98% 29.92 in 7.0 mi Calm Calm - 0.02 in Rain Light Rain
8:55 AM 69.1 °F 68.7 °F 99% 29.91 in 10.0 mi Calm Calm - 0.04 in Rain Rain
9:15 AM 69.1 °F 68.9 °F 99% 29.92 in 10.0 mi Calm Calm - N/A Rain Light Rain
9:35 AM 69.4 °F 68.9 °F 98% 29.91 in 10.0 mi Calm Calm - 0.01 in Rain Light Rain
9:55 AM 69.1 °F 68.9 °F 99% 29.92 in 7.0 mi Calm Calm - 0.01 in Rain Light Rain
10:15 AM 68.9 °F 68.9 °F 100% 29.94 in 10.0 mi South 3.5 mph - N/A Rain Light Rain
10:35 AM 69.1 °F 68.5 °F 98% 29.93 in 10.0 mi Calm Calm - 0.01 in Rain Rain
10:55 AM 69.1 °F 68.5 °F 98% 29.95 in 7.0 mi Calm Calm - 0.02 in   Drizzle
11:15 AM 68.9 °F 68.4 °F 98% 30.00 in 1.8 mi SW 12.7 mph 18.4 mph 0.21 in Rain Heavy Rain
11:35 AM 68.4 °F 68.0 °F 99% 29.94 in 3.0 mi Calm Calm - 0.30 in Rain Rain
11:55 AM 68.0 °F 68.0 °F 100% 29.95 in 7.0 mi Calm Calm - 0.35 in Rain Rain
12:15 PM 67.8 °F 67.5 °F 99% 29.94 in 7.0 mi Calm Calm - 0.04 in Rain Rain
12:35 PM 67.6 °F 67.5 °F 99% 29.97 in 3.0 mi Calm Calm - 0.12 in Rain Heavy Rain
1:15 PM 67.8 °F 67.6 °F 99% 29.95 in 10.0 mi SE 3.5 mph - 0.02 in Rain Light Rain
1:35 PM 68.0 °F 68.0 °F 100% 29.92 in 10.0 mi Calm Calm - 0.02 in   Light Drizzle
1:55 PM 68.9 °F 68.7 °F 99% 29.91 in 10.0 mi Calm Calm - 0.02 in Rain Light Rain
2:15 PM 70.0 °F 70.0 °F 100% 29.92 in 10.0 mi South 9.2 mph - N/A   Overcast
2:35 PM 71.6 °F 69.8 °F 94% 29.91 in 10.0 mi South 8.1 mph - N/A   Overcast
2:55 PM 72.9 °F 69.8 °F 90% 29.90 in 10.0 mi SSE 11.5 mph - N/A   Mostly Cloudy
3:15 PM 72.5 °F 69.8 °F 91% 29.91 in 10.0 mi South 6.9 mph - N/A   Mostly Cloudy
3:35 PM 72.3 °F 69.4 °F 91% 29.92 in 10.0 mi South 6.9 mph - N/A   Overcast
3:55 PM 73.4 °F 69.8 °F 88% 29.92 in 10.0 mi South 10.4 mph - N/A   Overcast
4:15 PM 72.7 °F 69.3 °F 89% 29.91 in 10.0 mi South 6.9 mph - N/A   Mostly Cloudy
4:35 PM 72.5 °F 69.4 °F 90% 29.90 in 10.0 mi Calm Calm - N/A   Overcast
4:55 PM 71.8 °F 69.3 °F 92% 29.90 in 10.0 mi South 3.5 mph - N/A   Overcast
5:15 PM 71.6 °F 69.8 °F 94% 29.89 in 10.0 mi Calm Calm - N/A   Overcast
5:35 PM 70.9 °F 70.0 °F 97% 29.89 in 4.0 mi Calm Calm - N/A   Light Drizzle
5:55 PM 70.7 °F 70.0 °F 98% 29.88 in 2.0 mi Calm Calm - N/A   Drizzle
6:15 PM 70.3 °F 70.0 °F 99% 29.87 in 2.5 mi Calm Calm - N/A   Drizzle
6:35 PM 70.0 °F 69.8 °F 99% 29.86 in 4.0 mi Calm Calm - 0.01 in   Overcast
6:55 PM 70.0 °F 69.8 °F 99% 29.85 in 4.0 mi SE 3.5 mph - 0.01 in Rain Rain
7:15 PM 70.0 °F 69.8 °F 99% 29.85 in 0.5 mi Calm Calm - 0.62 in Rain Heavy Rain
7:35 PM 70.0 °F 69.8 °F 99% 29.86 in 10.0 mi Calm Calm - 0.65 in   Overcast
7:55 PM 66.6 °F 66.2 °F 99% 29.85 in 10.0 mi NE 12.7 mph 20.7 mph 0.65 in   Overcast
8:15 PM 66.4 °F 65.8 °F 98% 29.87 in 10.0 mi WNW 4.6 mph - N/A   Overcast
8:35 PM 65.7 °F 65.5 °F 99% 29.86 in 3.0 mi ENE 11.5 mph 17.3 mph 0.12 in Rain Light Rain
8:55 PM 65.5 °F 65.3 °F 99% 29.86 in 0.2 mi NNE 15.0 mph 19.6 mph 0.87 in Rain Heavy Rain
9:15 PM 64.4 °F 64.4 °F 100% 29.87 in 0.5 mi NNE 6.9 mph 18.4 mph 0.64 in Rain Heavy Rain
9:35 PM 62.4 °F 62.2 °F 99% 29.91 in 1.0 mi North 15.0 mph 20.7 mph 1.03 in Rain Heavy Rain
9:55 PM 60.1 °F 59.9 °F 99% 29.93 in 7.0 mi NNE 13.8 mph 23.0 mph 1.12 in Rain Light Rain
10:15 PM 59.5 °F 59.4 °F 99% 29.95 in 5.0 mi NE 6.9 mph - 0.07 in Rain Heavy Rain
10:55 PM 58.6 °F 58.3 °F 99% 29.93 in 10.0 mi ENE 9.2 mph - 0.20 in Rain Light Rain
11:15 PM 58.1 °F 57.6 °F 98% 29.91 in 10.0 mi ENE 12.7 mph 19.6 mph 0.02 in Rain Light Rain
11:35 PM 57.7 °F 57.2 °F 98% 29.92 in 10.0 mi ENE 9.2 mph - 0.05 in Rain Light Rain
11:55 PM 57.2 °F 56.7 °F 98% 29.92 in 10.0 mi NE 9.2 mph - 0.06 in Rain Rain